Historique des stations

Station météo de Varennes-sur-Fouzon

Altitude de la station : 118 m







Données météorologiques pour le 02/12/2021
Date
Heure
Températures Humidité Point de rosée Vitesse
du vent
Direction Rafales Windchill Pression Pluviométrie
Cumul
Date
Heure
Températures Humidité Point de rosée Vitesse
du vent
Direction Rafales Windchill Pression Pluviométrie
Cumul
02/12/2021 11:405.4 °C82 %2.6 °C5 km/hONO16 km/h5.41012 hPa2.6 mm
02/12/2021 11:305.4 °C83 %2.8 °C5 km/hONO13 km/h5.41012 hPa2.6 mm
02/12/2021 11:105.1 °C83 %2.5 °C5 km/hONO13 km/h5.11012 hPa2.6 mm
02/12/2021 11:004.9 °C85 %2.6 °C5 km/hONO15 km/h4.91011 hPa2.6 mm
02/12/2021 10:404.7 °C86 %2.5 °C4 km/hONO13 km/h4.71011 hPa2.6 mm
02/12/2021 10:304.4 °C87 %2.5 °C4 km/hO13 km/h4.41011 hPa2.6 mm
02/12/2021 10:104.2 °C88 %2.4 °C3 km/hO11 km/h4.21011 hPa2.6 mm
02/12/2021 10:003.9 °C90 %2.4 °C3 km/hO10 km/h3.91011 hPa2.6 mm
02/12/2021 09:403.8 °C90 %2.3 °C3 km/hO10 km/h3.81010 hPa2.6 mm
02/12/2021 09:303.6 °C90 %2.1 °C4 km/hO11 km/h3.61010 hPa2.6 mm
02/12/2021 09:103.6 °C90 %2.1 °C5 km/hNO13 km/h3.61010 hPa2.6 mm
02/12/2021 09:003.3 °C90 %1.8 °C6 km/hNO18 km/h3.31010 hPa2.6 mm
02/12/2021 08:403.7 °C91 %2.3 °C6 km/hNO13 km/h3.71009 hPa2.6 mm
02/12/2021 08:303.9 °C91 %2.6 °C8 km/hNO15 km/h3.91009 hPa2.6 mm
02/12/2021 08:104.3 °C91 %3.0 °C7 km/h21 km/h2.11009 hPa2.6 mm
02/12/2021 08:004.5 °C93 %3.5 °C6 km/hNO18 km/h4.51009 hPa2.6 mm
02/12/2021 07:404.5 °C94 %3.6 °C5 km/hNNO21 km/h2.11008 hPa2.6 mm
02/12/2021 07:304.4 °C95 %3.7 °C4 km/hNO16 km/h4.41008 hPa2.6 mm
02/12/2021 07:104.3 °C95 %3.6 °C4 km/hONO13 km/h4.31008 hPa2.6 mm
02/12/2021 07:004.3 °C95 %3.5 °C4 km/hO11 km/h4.31007 hPa2.4 mm
02/12/2021 06:404.3 °C95 %3.5 °C5 km/hO11 km/h4.31007 hPa2.4 mm
02/12/2021 06:304.3 °C95 %3.5 °C4 km/hO13 km/h4.31007 hPa2.4 mm
02/12/2021 06:104.3 °C95 %3.5 °C4 km/hO10 km/h4.31007 hPa2.4 mm
02/12/2021 06:004.2 °C96 %3.6 °C4 km/hOSO8 km/h4.21007 hPa2.4 mm
02/12/2021 05:404.2 °C96 %3.6 °C3 km/hOSO10 km/h4.21007 hPa2.4 mm
02/12/2021 05:304.2 °C96 %3.6 °C3 km/hOSO8 km/h4.21007 hPa2.4 mm
02/12/2021 05:104.3 °C96 %3.7 °C3 km/hOSO5 km/h4.31007 hPa1.8 mm
02/12/2021 05:004.2 °C95 %3.5 °C4 km/hOSO5 km/h4.21007 hPa1.6 mm
02/12/2021 04:404.2 °C95 %3.5 °C4 km/hOSO5 km/h4.21007 hPa0.6 mm
02/12/2021 04:304.3 °C95 %3.5 °C4 km/hOSO8 km/h4.31007 hPa0.4 mm
02/12/2021 04:104.3 °C95 %3.6 °C4 km/hOSO10 km/h4.31006 hPa0.0 mm
02/12/2021 04:004.3 °C95 %3.6 °C3 km/hOSO10 km/h4.31006 hPa0.0 mm
02/12/2021 03:404.3 °C95 %3.5 °C3 km/hOSO13 km/h4.31007 hPa0.0 mm
02/12/2021 03:304.2 °C95 %3.4 °C2 km/hOSO8 km/h4.21006 hPa0.0 mm
02/12/2021 03:104.3 °C95 %3.5 °C2 km/hOSO6 km/h4.31006 hPa0.0 mm
02/12/2021 03:004.3 °C95 %3.6 °C2 km/hOSO6 km/h4.31006 hPa0.0 mm
02/12/2021 02:404.3 °C95 %3.5 °C2 km/hOSO6 km/h4.31006 hPa0.0 mm
02/12/2021 02:304.2 °C95 %3.4 °C2 km/hOSO5 km/h4.21006 hPa0.0 mm
02/12/2021 02:104.4 °C95 %3.7 °C3 km/hOSO6 km/h4.41006 hPa0.0 mm
02/12/2021 02:004.4 °C94 %3.5 °C3 km/hOSO10 km/h4.41006 hPa0.0 mm
02/12/2021 01:404.6 °C94 %3.7 °C2 km/hOSO6 km/h4.61005 hPa0.0 mm
02/12/2021 01:304.8 °C94 %3.9 °C3 km/hOSO13 km/h4.81005 hPa0.0 mm


Minima :

Température : 3.3 °C
Humidité : 82 %
Point de rosée : 1.8 °C
Vent moyen : 2 km/h
Windchill : 2.1
Pression atm. : 1005 hPa
Maxima :

Température : 5.4 °C
Humidité : 96 %
Point de rosée : 3.9 °C
Vent moyen : 8 km/h
Windchill : 5.4
Pression atm. : 1012 hPa
Rafales max : 21 km/h
Cumul de pluie sur 24H : 2.6 mm

Varennes sur fouzon est une commune du département Indre (36).
La station météorologique du réseau de l'association la plus proche de Varennes-sur-Fouzon est celle de Vicq-sur-Nahon



Icône Facebook Association Météo Centre Icône Twitter Association Météo Centre Icône Chaîne Youtube Association Météo Centre Icône contact Association Météo Centre Icône Insta Association Météo Centre